{"data":{"norad_id":48445,"epoch":"2026-05-24T14:57:56.502432Z","epoch_age_seconds":117607,"freshness":"FRESH","line1":"1 48445U 21040T   26144.62357063  .00001759  00000+0  68412-4 0  9997","line2":"2 48445  53.1585 184.9458 0001204  88.7394 271.3745 15.31705720278310","mean_motion":15.3170572,"eccentricity":0.0001204,"inclination_deg":53.1585,"raan_deg":184.9458,"arg_perigee_deg":88.7394,"mean_anomaly_deg":271.3745,"bstar":6.8412e-5,"rev_number":27831,"period_min":94.012836878353,"perigee_km":469.89834151907,"apogee_km":471.54754699364,"semimajor_km":6848.8599442564,"source":"CELESTRAK","updated_at":"2026-05-25T13:38:16.717270Z"}}